Regional Weather Roundup
Issued by NWS Mt. Holly, NJ

Home | Current Version | Previous Version | Text Only | Print | Product List | Glossary On
Versions: 1 2 3 4 5 6 7 8 9 10 11 12 13 14 15 16 17 18 19 20 21 22 23 24 25 26 27 28 29 30 31 32 33 34 35 36 37 38 39 40 41 42 43 44 45 46 47 48 49 50
970
ASUS41 KPHI 220711
RWRPHI

REGIONAL WEATHER ROUNDUP
NATIONAL WEATHER SERVICE MOUNT HOLLY NJ
200 AM EST WED FEB 22 2017

NOTE:  "FAIR" INDICATES FEW OR NO CLOUDS BELOW 12,000 FEET WITH NO
SIGNIFICANT WEATHER AND/OR OBSTRUCTIONS TO VISIBILITY.

 * = STATION DOES NOT REPORT PRECIPITATION (E.G. RAIN, SNOW, ETC.)
        OR FOG.

NJZ015>026-220800-
SOUTHERN NEW JERSEY

CITY           SKY/WX    TMP DP  RH WIND       PRES   REMARKS
POMONA         CLOUDY    42  37  82 CALM      30.09F
WRIGHTSTOWN    PTCLDY    38  35  86 SW3       30.05F
TRENTON        NOT AVBL

$$
NJZ001>014-220800-
NORTHERN NEW JERSEY

CITY           SKY/WX    TMP DP  RH WIND       PRES   REMARKS
ANDOVER*         N/A     40  32  73 SW5       30.05S
MORRISTOWN     CLOUDY    41  32  70 CALM      30.08R
NEWARK         CLOUDY    42  34  73 S7        30.08F

$$
PAZ043-044-047-054-055-060>062-066>071-220800-
EASTERN PENNSYLVANIA

CITY           SKY/WX    TMP DP  RH WIND       PRES   REMARKS
PHILADELPHIA   CLOUDY    42  36  79 S3        30.10F
BLUE BELL*     CLOUDY    41  34  75 SW3       30.07F
QUAKERTOWN*    CLOUDY    39  32  75 CALM      30.07F
COATESVILLE    PTCLDY    39  36  87 S5        30.07F
READING        NOT AVBL
ALLENTOWN      NOT AVBL
MOUNT POCONO   NOT AVBL
LEHIGHTON      PTSUNNY   36  32  87 CALM      30.06F
WILKES BARRE   NOT AVBL

$$
DEZALL-MDZ008-012-015-019-020-220800-
DELAWARE AND EASTERN MARYLAND

CITY           SKY/WX    TMP DP  RH WIND       PRES   REMARKS
WILMINGTON     NOT AVBL
DOVER          CLOUDY    40  40 100 SE3       30.07F
GEORGETOWN     NOT AVBL
EASTON         CLOUDY    44  37  77 S5        30.12F
ABERDEEN       CLOUDY    39  36  89 CALM      30.09F
PATUXENT       PTCLDY    43  42  97 SE6       30.09F
OCEAN CITY     CLOUDY    41  39  93 CALM      30.10F
WALLOPS ISLAND PTCLDY    42  41  96 CALM      30.11F
SALISBURY      CLOUDY    38  37  97 CALM      30.09F

$$
PAZ001-021-NYZ056-072-MDZ011-DCZ001-220800-
OTHER NEARBY LOCATIONS

CITY           SKY/WX    TMP DP  RH WIND       PRES   REMARKS
HARRISBURG     CLOUDY    43  36  76 E6        30.04F
STATE COLLEGE  CLOUDY    45  33  62 SW5       30.00S
BINGHAMTON     NOT AVBL
NEW YORK CITY  CLOUDY    44  34  67 VRB6      30.09F
BALTIMORE      CLOUDY    44  39  82 CALM      30.07F
WASHINGTON DC  CLOUDY    47  40  76 S6        30.08F

$$




USA.gov is the U.S. government's official web portal to all federal, state and local government web resources and services.